Time,TemperatureF,DewpointF,PressureIn,WindDirection,WindDirectionDegrees,WindSpeedMPH,WindSpeedGustMPH,Humidity,HourlyPrecipIn,Conditions,Clouds,dailyrainin,SolarRadiationWatts/m^2,SoftwareType,DateUTC
2013-05-16 00:01:00,49.0,45.0,-100.00,SE,139,3.0,7.0,86,-99.99,,,0.00,0.000000,,2013-05-16 06:01:00,
2013-05-16 00:12:00,49.0,45.0,-100.00,SE,139,3.0,7.0,86,-99.99,,,0.00,0.000000,,2013-05-16 06:12:00,
2013-05-16 00:43:00,46.0,43.0,-100.00,NW,323,1.0,3.0,88,-99.99,,,0.00,0.000000,,2013-05-16 06:43:00,
2013-05-16 00:53:00,46.0,43.0,-100.00,NW,323,1.0,3.0,88,-99.99,,,0.00,0.000000,,2013-05-16 06:53:00,
2013-05-16 01:02:00,46.0,43.0,-100.00,NW,323,1.0,3.0,88,-99.99,,,0.00,0.000000,,2013-05-16 07:02:00,
2013-05-16 01:12:00,46.0,43.0,-100.00,NW,323,1.0,3.0,88,-99.99,,,0.00,0.000000,,2013-05-16 07:12:00,
2013-05-16 01:44:00,43.0,42.0,-100.00,North,0,0.0,0.0,94,-99.99,,,0.00,0.000000,,2013-05-16 07:44:00,
2013-05-16 01:54:00,43.0,42.0,-100.00,North,0,0.0,0.0,94,-99.99,,,0.00,0.000000,,2013-05-16 07:54:00,
2013-05-16 02:03:00,43.0,42.0,-100.00,North,0,0.0,0.0,94,-99.99,,,0.00,0.000000,,2013-05-16 08:03:00,
2013-05-16 02:13:00,43.0,42.0,-100.00,North,0,0.0,0.0,94,-99.99,,,0.00,0.000000,,2013-05-16 08:13:00,
2013-05-16 02:44:00,42.0,41.0,-100.00,SE,130,1.0,3.0,97,-99.99,,,0.00,0.000000,,2013-05-16 08:44:00,
2013-05-16 02:55:00,42.0,41.0,-100.00,SE,130,1.0,3.0,97,-99.99,,,0.00,0.000000,,2013-05-16 08:55:00,
2013-05-16 03:04:00,42.0,41.0,-100.00,SE,130,1.0,3.0,97,-99.99,,,0.00,0.000000,,2013-05-16 09:04:00,
2013-05-16 03:14:00,42.0,41.0,-100.00,SE,130,1.0,3.0,97,-99.99,,,0.00,0.000000,,2013-05-16 09:14:00,
2013-05-16 03:45:00,45.0,43.0,-100.00,North,0,0.0,0.0,92,-99.99,,,0.00,0.000000,,2013-05-16 09:45:00,
2013-05-16 03:55:00,45.0,43.0,-100.00,North,0,0.0,0.0,92,-99.99,,,0.00,0.000000,,2013-05-16 09:55:00,
2013-05-16 04:04:00,45.0,43.0,-100.00,North,0,0.0,0.0,92,-99.99,,,0.00,0.000000,,2013-05-16 10:04:00,
2013-05-16 04:14:00,45.0,43.0,-100.00,North,0,0.0,0.0,92,-99.99,,,0.00,0.000000,,2013-05-16 10:14:00,
2013-05-16 04:45:00,43.0,43.0,-100.00,North,0,0.0,0.0,99,-99.99,,,0.00,0.000000,,2013-05-16 10:45:00,
2013-05-16 04:56:00,43.0,43.0,-100.00,North,0,0.0,0.0,99,-99.99,,,0.00,0.000000,,2013-05-16 10:56:00,
2013-05-16 05:05:00,43.0,43.0,-100.00,North,0,0.0,0.0,99,-99.99,,,0.00,0.000000,,2013-05-16 11:05:00,
2013-05-16 05:14:00,43.0,43.0,-100.00,North,0,0.0,0.0,99,-99.99,,,0.00,0.000000,,2013-05-16 11:14:00,
2013-05-16 05:46:00,45.0,45.0,-100.00,North,0,0.0,0.0,97,-99.99,,,0.00,0.000000,,2013-05-16 11:46:00,
2013-05-16 05:57:00,45.0,45.0,-100.00,North,0,0.0,0.0,97,-99.99,,,0.00,0.000000,,2013-05-16 11:57:00,
2013-05-16 06:06:00,45.0,45.0,-100.00,North,0,0.0,0.0,97,-99.99,,,0.00,0.000000,,2013-05-16 12:06:00,
2013-05-16 06:13:00,45.0,45.0,-100.00,North,0,0.0,0.0,97,-99.99,,,0.00,0.000000,,2013-05-16 12:13:00,
2013-05-16 06:45:00,46.0,45.0,-100.00,North,0,0.0,0.0,95,-99.99,,,0.00,1.740000,,2013-05-16 12:45:00,
2013-05-16 06:53:00,46.0,45.0,-100.00,North,0,0.0,0.0,95,-99.99,,,0.00,1.740000,,2013-05-16 12:53:00,
2013-05-16 07:04:00,46.0,45.0,-100.00,North,0,0.0,0.0,95,-99.99,,,0.00,1.740000,,2013-05-16 13:04:00,
2013-05-16 07:12:00,46.0,45.0,-100.00,North,0,0.0,0.0,95,-99.99,,,0.00,1.740000,,2013-05-16 13:12:00,
2013-05-16 07:15:00,45.0,45.0,-100.00,SSE,164,0.0,2.0,100,-99.99,,,0.00,32.770000,,2013-05-16 13:15:00,
2013-05-16 07:43:00,45.0,45.0,-100.00,SSE,164,0.0,2.0,100,-99.99,,,0.00,32.770000,,2013-05-16 13:43:00,
2013-05-16 07:55:00,45.0,45.0,-100.00,SSE,164,0.0,2.0,100,-99.99,,,0.00,32.770000,,2013-05-16 13:55:00,
2013-05-16 08:05:00,45.0,45.0,-100.00,SSE,164,0.0,2.0,100,-99.99,,,0.00,32.770000,,2013-05-16 14:05:00,
2013-05-16 08:15:00,46.0,46.0,-100.00,SSE,165,0.0,3.0,99,-99.99,,,0.00,88.089996,,2013-05-16 14:15:00,
2013-05-16 08:47:00,46.0,46.0,-100.00,SSE,165,0.0,3.0,99,-99.99,,,0.00,88.089996,,2013-05-16 14:47:00,
2013-05-16 08:56:00,46.0,46.0,-100.00,SSE,165,0.0,3.0,99,-99.99,,,0.00,88.089996,,2013-05-16 14:56:00,
2013-05-16 09:08:00,46.0,46.0,-100.00,SSE,165,0.0,3.0,99,-99.99,,,0.00,88.089996,,2013-05-16 15:08:00,
2013-05-16 09:15:00,47.0,45.0,-100.00,WNW,296,1.0,2.0,92,-99.99,,,0.00,74.730003,,2013-05-16 15:15:00,
2013-05-16 09:50:00,47.0,45.0,-100.00,WNW,296,1.0,2.0,92,-99.99,,,0.00,74.730003,,2013-05-16 15:50:00,
2013-05-16 10:00:00,47.0,45.0,-100.00,WNW,296,1.0,2.0,92,-99.99,,,0.00,74.730003,,2013-05-16 16:00:00,
2013-05-16 10:09:00,47.0,45.0,-100.00,WNW,296,1.0,2.0,92,-99.99,,,0.00,74.730003,,2013-05-16 16:09:00,
2013-05-16 10:15:00,49.0,46.0,-100.00,NNW,335,1.0,5.0,89,-99.99,,,0.00,230.809998,,2013-05-16 16:15:00,
2013-05-16 10:50:00,49.0,46.0,-100.00,NNW,335,1.0,5.0,89,-99.99,,,0.00,230.809998,,2013-05-16 16:50:00,
2013-05-16 11:00:00,49.0,46.0,-100.00,NNW,335,1.0,5.0,89,-99.99,,,0.00,230.809998,,2013-05-16 17:00:00,
2013-05-16 11:10:00,49.0,46.0,-100.00,NNW,335,1.0,5.0,89,-99.99,,,0.00,230.809998,,2013-05-16 17:10:00,
2013-05-16 11:15:00,52.0,46.0,-100.00,NNE,26,2.0,7.0,79,-99.99,,,0.00,496.260010,,2013-05-16 17:15:00,
2013-05-16 11:50:00,52.0,-99.9,-100.00,NNE,26,2.0,7.0,79,-99.99,,,0.00,496.260010,,2013-05-16 17:50:00,
2013-05-16 12:00:00,-999.0,-99.9,-100.00,NNE,26,2.0,7.0,79,-99.99,,,0.00,496.260010,,2013-05-16 18:00:00,
2013-05-16 12:10:00,52.0,46.0,-100.00,NNE,26,2.0,7.0,79,-99.99,,,0.00,496.260010,,2013-05-16 18:10:00,
2013-05-16 12:15:00,53.0,45.0,-100.00,North,353,2.0,7.0,74,-99.99,,,0.00,336.570007,,2013-05-16 18:15:00,
2013-05-16 12:50:00,-999.0,-99.9,-100.00,North,353,2.0,7.0,74,-99.99,,,0.00,336.570007,,2013-05-16 18:50:00,
2013-05-16 13:00:00,-999.0,-99.9,-100.00,North,353,2.0,7.0,74,-99.99,,,0.00,336.570007,,2013-05-16 19:00:00,
2013-05-16 13:10:00,53.0,45.0,-100.00,North,353,2.0,7.0,74,-99.99,,,0.00,336.570007,,2013-05-16 19:10:00,
2013-05-16 13:15:00,55.0,-99.9,-100.00,NW,326,3.0,7.0,64,-99.99,,,0.00,703.599976,,2013-05-16 19:15:00,
2013-05-16 13:50:00,-999.0,-99.9,-100.00,NW,326,3.0,7.0,64,-99.99,,,0.00,703.599976,,2013-05-16 19:50:00,
2013-05-16 14:00:00,-999.0,-99.9,-100.00,NW,326,3.0,7.0,64,-99.99,,,0.00,703.599976,,2013-05-16 20:00:00,
2013-05-16 14:10:00,-999.0,-99.9,-100.00,NW,326,3.0,7.0,64,-99.99,,,0.00,703.599976,,2013-05-16 20:10:00,
2013-05-16 14:15:00,57.0,44.0,-100.00,NW,313,3.0,7.0,61,-99.99,,,0.00,642.460022,,2013-05-16 20:15:00,
2013-05-16 14:50:00,57.0,44.0,-100.00,NW,313,3.0,7.0,61,-99.99,,,0.00,642.460022,,2013-05-16 20:50:00,
2013-05-16 15:00:00,57.0,-99.9,-100.00,NW,313,3.0,7.0,61,-99.99,,,0.00,642.460022,,2013-05-16 21:00:00,
2013-05-16 15:10:00,57.0,-99.9,-100.00,NW,313,3.0,7.0,61,-99.99,,,0.00,642.460022,,2013-05-16 21:10:00,
2013-05-16 15:15:00,61.0,44.0,-100.00,NNW,331,3.0,8.0,54,-99.99,,,0.00,849.570007,,2013-05-16 21:15:00,
2013-05-16 15:50:00,61.0,-99.9,-100.00,NNW,331,3.0,8.0,54,-99.99,,,0.00,849.570007,,2013-05-16 21:50:00,
2013-05-16 16:00:00,-999.0,-99.9,-100.00,NNW,331,3.0,8.0,54,-99.99,,,0.00,849.570007,,2013-05-16 22:00:00,
2013-05-16 16:08:00,61.0,44.0,-100.00,NNW,331,3.0,8.0,54,-99.99,,,0.00,849.570007,,2013-05-16 22:08:00,
2013-05-16 16:15:00,61.0,41.0,-100.00,North,10,2.0,8.0,48,-99.99,,,0.00,508.459991,,2013-05-16 22:15:00,
2013-05-16 16:50:00,61.0,41.0,-100.00,North,10,2.0,8.0,48,-99.99,,,0.00,508.459991,,2013-05-16 22:50:00,
2013-05-16 17:01:00,61.0,41.0,-100.00,North,10,2.0,8.0,48,-99.99,,,0.00,508.459991,,2013-05-16 23:01:00,
2013-05-16 17:06:00,61.0,41.0,-100.00,North,10,2.0,8.0,48,-99.99,,,0.00,508.459991,,2013-05-16 23:06:00,
2013-05-16 17:45:00,62.0,40.0,-100.00,North,3,2.0,5.0,43,-99.99,,,0.00,522.869995,,2013-05-16 23:45:00,
2013-05-16 17:54:00,62.0,40.0,-100.00,North,3,2.0,5.0,43,-99.99,,,0.00,522.869995,,2013-05-16 23:54:00,
2013-05-16 18:02:00,62.0,40.0,-100.00,North,3,2.0,5.0,43,-99.99,,,0.00,522.869995,,2013-05-17 00:02:00,
2013-05-16 18:13:00,62.0,40.0,-100.00,North,3,2.0,5.0,43,-99.99,,,0.00,522.869995,,2013-05-17 00:13:00,
2013-05-16 18:43:00,62.0,40.0,-100.00,North,5,2.0,6.0,42,-99.99,,,0.00,390.380005,,2013-05-17 00:43:00,
2013-05-16 18:53:00,62.0,40.0,-100.00,North,5,2.0,6.0,42,-99.99,,,0.00,390.380005,,2013-05-17 00:53:00,
2013-05-16 19:03:00,62.0,40.0,-100.00,North,5,2.0,6.0,42,-99.99,,,0.00,390.380005,,2013-05-17 01:03:00,
2013-05-16 19:12:00,62.0,40.0,-100.00,North,5,2.0,6.0,42,-99.99,,,0.00,390.380005,,2013-05-17 01:12:00,
2013-05-16 19:43:00,62.0,40.0,-100.00,NNW,345,1.0,4.0,43,-99.99,,,0.00,223.029999,,2013-05-17 01:43:00,
2013-05-16 19:52:00,62.0,40.0,-100.00,NNW,345,1.0,4.0,43,-99.99,,,0.00,223.029999,,2013-05-17 01:52:00,
2013-05-16 20:02:00,62.0,40.0,-100.00,NNW,345,1.0,4.0,43,-99.99,,,0.00,223.029999,,2013-05-17 02:02:00,
2013-05-16 20:11:00,62.0,40.0,-100.00,NNW,345,1.0,4.0,43,-99.99,,,0.00,223.029999,,2013-05-17 02:11:00,
2013-05-16 20:42:00,56.0,42.0,-100.00,NNE,15,0.0,0.0,58,-99.99,,,0.00,44.509998,,2013-05-17 02:42:00,
2013-05-16 20:53:00,56.0,42.0,-100.00,NNE,15,0.0,0.0,58,-99.99,,,0.00,44.509998,,2013-05-17 02:53:00,
2013-05-16 21:01:00,56.0,42.0,-100.00,NNE,15,0.0,0.0,58,-99.99,,,0.00,44.509998,,2013-05-17 03:01:00,
2013-05-16 21:11:00,56.0,42.0,-100.00,NNE,15,0.0,0.0,58,-99.99,,,0.00,44.509998,,2013-05-17 03:11:00,
2013-05-16 21:43:00,52.0,41.0,-100.00,ENE,63,1.0,2.0,66,-99.99,,,0.00,3.020000,,2013-05-17 03:43:00,
2013-05-16 21:53:00,52.0,41.0,-100.00,ENE,63,1.0,2.0,66,-99.99,,,0.00,3.020000,,2013-05-17 03:53:00,
2013-05-16 22:02:00,52.0,41.0,-100.00,ENE,63,1.0,2.0,66,-99.99,,,0.00,3.020000,,2013-05-17 04:02:00,
2013-05-16 22:13:00,52.0,41.0,-100.00,ENE,63,1.0,2.0,66,-99.99,,,0.00,3.020000,,2013-05-17 04:13:00,
2013-05-16 22:43:00,51.0,42.0,-100.00,ESE,113,1.0,3.0,70,-99.99,,,0.00,0.000000,,2013-05-17 04:43:00,
2013-05-16 22:53:00,51.0,42.0,-100.00,ESE,113,1.0,3.0,70,-99.99,,,0.00,0.000000,,2013-05-17 04:53:00,
2013-05-16 23:02:00,51.0,42.0,-100.00,ESE,113,1.0,3.0,70,-99.99,,,0.00,0.000000,,2013-05-17 05:02:00,
2013-05-16 23:13:00,51.0,42.0,-100.00,ESE,113,1.0,3.0,70,-99.99,,,0.00,0.000000,,2013-05-17 05:13:00,
2013-05-16 23:42:00,50.0,40.0,-100.00,North,0,0.0,0.0,69,-99.99,,,0.00,0.000000,,2013-05-17 05:42:00,
2013-05-16 23:52:00,50.0,40.0,-100.00,North,0,0.0,0.0,69,-99.99,,,0.00,0.000000,,2013-05-17 05:52:00,